TimeCST,TemperatureF,Dew PointF,Humidity,Sea Level PressureIn,VisibilityMPH,Wind Direction,Wind SpeedMPH,Gust SpeedMPH,PrecipitationIn,Events,Conditions,WindDirDegrees,DateUTC
12:53 AM,66.0,63.0,90,29.87,8.0,SSE,5.8,-,N/A,,Clear,150,2013-02-05 06:53:00
1:53 AM,66.0,63.0,90,29.87,8.0,South,5.8,-,N/A,,Clear,170,2013-02-05 07:53:00
2:53 AM,68.0,64.0,87,29.86,8.0,South,8.1,-,N/A,,Clear,180,2013-02-05 08:53:00
3:53 AM,66.0,63.0,90,29.87,7.0,South,4.6,-,N/A,,Clear,190,2013-02-05 09:53:00
4:53 AM,66.0,63.0,90,29.88,7.0,SSW,4.6,-,N/A,,Partly Cloudy,200,2013-02-05 10:53:00
5:53 AM,64.9,62.1,90,29.89,4.0,SSE,5.8,-,N/A,,Clear,160,2013-02-05 11:53:00
6:53 AM,64.0,62.1,93,29.91,6.0,South,3.5,-,N/A,,Clear,170,2013-02-05 12:53:00
7:53 AM,66.0,63.0,90,29.92,6.0,Calm,Calm,-,N/A,,Clear,0,2013-02-05 13:53:00
9:53 AM,75.0,66.9,76,29.97,8.0,SSW,9.2,-,N/A,,Clear,200,2013-02-05 15:53:00
10:53 AM,81.0,66.0,60,29.95,9.0,South,11.5,-,N/A,,Clear,170,2013-02-05 16:53:00
11:53 AM,82.9,64.9,54,29.93,9.0,SSE,10.4,16.1,N/A,,Clear,160,2013-02-05 17:53:00
12:53 PM,86.0,64.0,48,29.91,9.0,ESE,8.1,-,N/A,,Clear,120,2013-02-05 18:53:00
1:53 PM,84.0,66.9,56,29.88,9.0,ESE,17.3,-,N/A,,Clear,120,2013-02-05 19:53:00
2:53 PM,82.0,66.9,60,29.87,9.0,ESE,15.0,-,N/A,,Clear,110,2013-02-05 20:53:00
3:53 PM,80.1,68.0,67,29.86,8.0,ESE,16.1,-,N/A,,Clear,110,2013-02-05 21:53:00
4:53 PM,78.1,68.0,71,29.86,9.0,ESE,11.5,-,N/A,,Clear,120,2013-02-05 22:53:00
5:53 PM,73.9,68.0,82,29.87,7.0,ESE,10.4,-,N/A,,Clear,120,2013-02-05 23:53:00
6:53 PM,72.0,68.0,87,29.88,7.0,ESE,11.5,-,N/A,,Clear,110,2013-02-06 00:53:00
7:53 PM,72.0,68.0,87,29.90,6.0,ESE,9.2,-,N/A,,Clear,120,2013-02-06 01:53:00
8:02 PM,71.6,68.0,88,29.91,7.0,SE,9.2,-,N/A,,Partly Cloudy,130,2013-02-06 02:02:00
8:48 PM,71.6,69.8,94,29.93,7.0,ESE,8.1,-,N/A,,Mostly Cloudy,120,2013-02-06 02:48:00
8:53 PM,73.0,69.1,87,29.93,7.0,ESE,9.2,-,N/A,,Mostly Cloudy,120,2013-02-06 02:53:00
9:53 PM,73.0,69.1,87,29.92,6.0,ESE,12.7,-,N/A,,Mostly Cloudy,120,2013-02-06 03:53:00
10:04 PM,73.4,69.8,88,29.92,6.0,ESE,11.5,-,N/A,,Mostly Cloudy,120,2013-02-06 04:04:00
10:27 PM,71.6,69.8,94,29.92,6.0,SE,10.4,-,N/A,,Mostly Cloudy,130,2013-02-06 04:27:00
10:36 PM,71.6,69.8,94,29.92,6.0,SE,10.4,-,N/A,,Overcast,130,2013-02-06 04:36:00
10:53 PM,73.0,70.0,90,29.92,6.0,ESE,11.5,-,N/A,,Overcast,120,2013-02-06 04:53:00
11:24 PM,73.4,69.8,88,29.91,6.0,SE,12.7,-,N/A,,Overcast,130,2013-02-06 05:24:00
11:42 PM,71.6,69.8,94,29.91,6.0,SE,11.5,-,N/A,,Overcast,140,2013-02-06 05:42:00
11:53 PM,73.0,69.1,87,29.91,6.0,SE,16.1,20.7,N/A,,Overcast,140,2013-02-06 05:53:00